Location: Unspecified
(51.0950°N, 12.9690°E)
Time: 22:49:37
(UTC+00:00)

NANOSAT C BR1 - Visible Passes

Search period start: 24 April 2024 00:00
Search period end: 04 May 2024 00:00
Orbit: 556 x 565 km, 98.1° (Epoch: 24 April)

Date Brightness Start Highest point End Pass type
(mag) Time Alt. Az. Time Alt. Az. Time Alt. Az.
24 Apr ? 02:15:12 10° NE 02:18:29 23° E 02:21:44 10° SSE visible
25 Apr ? 02:14:16 10° NE 02:17:30 23° E 02:20:43 10° SSE visible
26 Apr ? 02:13:17 10° NE 02:16:29 22° E 02:19:40 10° SE visible
27 Apr ? 02:12:16 10° NE 02:15:26 22° E 02:18:34 10° SE visible
28 Apr ? 02:11:13 10° NE 02:14:20 21° E 02:17:26 10° SE visible
29 Apr ? 02:10:08 10° NE 02:13:11 20° E 02:16:14 10° SE visible
30 Apr ? 02:09:01 10° NE 02:12:01 20° E 02:15:00 10° SE visible
01 May ? 02:07:51 10° NE 02:10:48 19° E 02:13:44 10° SE visible
02 May ? 02:06:39 10° NE 02:09:32 19° E 02:12:25 10° SE visible
03 May ? 02:05:25 10° NE 02:08:14 18° E 02:11:03 10° SE visible
